Home   Weather   El Aaiún   Past weeks

Past Weather in El Aaiún, Western Sahara — Yesterday and Last 2 Weeks

Now
61 °F

Clear.


Feels Like: 61 °F
Forecast: 62 / 80 °F
Wind: 3 mph from Northeast

Location: Laayoune/Hassan Isl

Current Time: Apr 26, 2017 at 5:40:19 am

Latest Report: Apr 26, 2017 at 5:00 am


Visibility: 10 mi

Pressure: 29.92 "Hg

Humidity: 83%

Dew Point: 55 °F

Location of El AaiúnLocation

Past Weather in El Aaiún — Graph

°F

El Aaiún Temperature Yesterday

Maximum temperature yesterday: 79 °F (at 2:00 pm)
Minimum temperature yesterday: 59 °F (at 3:00 am)
Average temperature yesterday: 68 °F

High & Low Weather Summary for the Past Weeks

 TemperatureHumidityPressure
High102 °F (Apr 16, 5:00 pm)100% (Apr 18, 7:00 am)30.15 "Hg (Apr 18, 7:00 am)
Low59 °F (Apr 11, 7:00 am)5% (Apr 16, 1:00 pm)29.74 "Hg (Apr 17, 3:00 pm)
Average71 °F62%29.98 "Hg
* Reported Apr 11 4:00 am — Apr 26 4:00 am, El Aaiún, Weather by CustomWeather, © 2017

Note: Actual official high and low records may vary slightly from our data, if they occured in-between our weather recording intervals... More about our weather records

Advertising

El Aaiún Weather History for the Previous 24 Hours

Scroll right to see more
 ConditionsComfort  
Time TempWeatherWind HumidityBarometerVisibility
4:00 am
Wed, Apr 26
63 °FClear.2 mph77%29.92 "Hg10 mi
3:00 am63 °FClear.5 mph77%29.92 "Hg10 mi
2:00 am63 °FClear.5 mph77%29.95 "Hg10 mi
1:00 am64 °FClear.6 mph73%29.98 "Hg10 mi
12:00 am64 °FClear.8 mph73%29.98 "Hg10 mi
11:00 pm
Tue, Apr 25
64 °FClear.9 mph73%29.98 "Hg10 mi
10:00 pm64 °FClear.12 mph78%29.95 "Hg10 mi
9:00 pm68 °FSunny.9 mph73%29.92 "Hg10 mi
8:00 pm72 °FSunny.14 mph53%29.92 "Hg10 mi
7:00 pm73 °FSunny.14 mph53%29.92 "Hg10 mi
6:00 pm75 °FSunny.18 mph54%29.92 "Hg10 mi
5:00 pm75 °FSunny.17 mph54%29.92 "Hg10 mi
4:00 pm77 °FSunny.23 mph51%29.92 "Hg10 mi
3:00 pm77 °FSunny.16 mph47%29.92 "Hg10 mi
2:00 pm79 °FSunny.8 mph45%29.95 "Hg10 mi
1:00 pm77 °FPassing clouds.12 mph44%29.98 "HgN/A
12:00 pm73 °FScattered clouds.9 mph53%29.98 "HgN/A
11:00 am72 °FScattered clouds.12 mph57%29.98 "HgN/A
10:00 am66 °FScattered clouds.12 mph73%29.98 "HgN/A
9:00 am64 °FSunny.8 mph83%29.98 "Hg10 mi
8:00 am59 °FPassing clouds.3 mph94%29.95 "Hg5 mi
7:00 am59 °FPassing clouds.5 mph94%29.95 "Hg5 mi
6:00 am61 °FPassing clouds.5 mph83%29.95 "HgN/A
5:00 am61 °FPassing clouds.5 mph88%29.95 "HgN/A
Weather by CustomWeather, © 2017

See weather overviewHow to use our weather pages